Location: Bakov nad Jizerou
(50.4784°N, 14.9394°E)
Time: 07:12:44
(UTC+00:00)

USA 267 - Pass Details

Date: 16 June 2021
Orbit: 1102 x 1106 km, 123.0° (Epoch: 24 July)

Event Time Altitude Azimuth Distance (km) Brightness Sun altitude
Rises 20:26:15 0° 97° (E) 3,918 5.7 -8.6°
Reaches altitude 10° 20:28:45 10° 94° (E) 2,962 5.2 -8.8°
Maximum altitude 20:35:09 61° 17° (NNE) 1,245 3.8 -9.4°
Drops below altitude 10° 20:41:35 10° 299° (WNW) 2,969 6.6 -10.0°
Sets 20:44:06 0° 296° (WNW) 3,929 7.2 -10.2°
